Regional Weather Roundup
Issued by NWS Northern Indiana

Home | Current Version | Previous Version | Text Only | Print | Product List | Glossary On
Versions: 1 2 3 4 5 6 7 8 9 10 11 12 13 14 15 16 17 18 19 20 21 22 23 24 25 26 27 28 29 30 31 32 33 34 35 36 37 38 39 40 41 42 43 44 45 46 47 48 49 50
000
ASUS43 KIWX 050710
RWRIWX

KIWX WEATHER ROUNDUP
NATIONAL WEATHER SERVICE NORTHERN INDIANA
300 AM EDT TUE MAY 05 2015

NOTE: "FAIR" INDICATES FEW OR NO CLOUDS BELOW 12,000 FEET WITH NO
SIGNIFICANT WEATHER AND/OR OBSTRUCTIONS TO VISIBILITY.

* THESE STATIONS ARE NOT UNDER NWS QUALITY CONTROL. THEY ALSO MAY NOT
  REPORT WEATHER SUCH AS PRECIPITATION OR FOG.

INZ001>027-050800-
NORTHERN INDIANA

CITY           SKY/WX    TMP DP  RH WIND       PRES   REMARKS
GARY*          CLOUDY    56  46  68 W10G21    30.20R
VALPARAISO     MOCLDY    58  56  93 E6        30.16F
MICHIGAN CITY* MOCLDY    54  52  94 CALM      30.18R
LAPORTE*       MOCLDY    60  57  88 CALM      30.18S
KNOX*          CLOUDY    61  55  82 SE6       30.16S
SOUTH BEND     PTCLDY    60  54  80 CALM      30.18S
GOSHEN         PTCLDY    58  56  93 CALM      30.17F FOG
MONTICELLO*    RAIN      61  60  98 S5        30.17R
LOGANSPORT*    RAIN      61  59  94 SE5       30.18R
ROCHESTER*     MOCLDY    63  63 100 CALM      30.18S
WARSAW*        FAIR      59  59 100 CALM      30.18S FOG
ANGOLA*        MOCLDY    55  55 100 CALM      30.19S
FORT WAYNE     MOCLDY    59  58  96 SE3       30.19F
HUNTINGTON*    MOCLDY    59  58  97 SE3       30.18F
PERU/GRISSOM   LGT RAIN  63  61  94 SE8       30.16F
MARION*        CLOUDY    60  58  91 S3        30.19S

$$
INZ028>050-050800-
CENTRAL INDIANA

CITY           SKY/WX    TMP DP  RH WIND       PRES   REMARKS
LAFAYETTE      CLOUDY    62  59  90 E3        30.15S
KOKOMO*        MOCLDY    63  61  94 SE7       30.18S THUNDER
MUNCIE*        LGT RAIN  62  59  90 MISG      30.20R
INDIANAPOLIS   CLOUDY    63  60  90 E3        30.17S

$$
MIZ043>046-050>051-056>058-064>065-071>073-077>080-050800-
SOUTHWEST LOWER MICHIGAN

CITY           SKY/WX    TMP DP  RH WIND       PRES   REMARKS
BATTLE CREEK   PTCLDY    57  41  55 NE3       30.20F
BENTON HARBOR  MOCLDY    49  48  97 NE5       30.16F
COLDWATER*     MOCLDY    54  53  97 CALM      30.19S
HILLSDALE*     PTCLDY    55  55  99 CALM      30.19F
HOLLAND        MOCLDY    56  40  55 NE3       30.21S
GRAND RAPIDS   PTCLDY    55  37  50 NE9       30.21S
KALAMAZOO      MOCLDY    59  42  53 NE3       30.20S
STURGIS*       CLOUDY    57  55  94 CALM      30.18F
THREE RIVERS*  FAIR      57  54  89 CALM      30.19S

$$
OHZ001>008-015>018-024>025-050800-
NORTHWEST OHIO

CITY           SKY/WX    TMP DP  RH WIND       PRES   REMARKS
WAUSEON*       CLOUDY    59  59 100 NW5       30.19F FOG
DEFIANCE       CLOUDY    61  58  90 CALM      30.19F FOG
FINDLAY        CLOUDY    62  59  90 SW3       30.19F FOG
TOLEDO EXPRESS CLOUDY    60  59  96 W5        30.18S FOG
TOLEDO METCALF PTCLDY    61  58  90 SW7       30.19R FOG
LIMA           CLOUDY    61  58  90 SE6       30.20F FOG

$$
AND FOR LAKE MICHIGAN COASTAL AND OPEN LAKE BUOY OBSERVATIONS

STATION/POSITION TEMP    WIND        PRES    VSBY  WAVE
                 AIR SEA DIR/SP/G                  HT/PER
                 (F)     (DEG/KT/KT) (MB)    (MI)  (FT/S)
CALUMET HARBOR    51     260/  5/  8   N/A
MICHIGAN CITY     59      50/  3/  4   N/A
BURNS HARBOR      54      90/  5/  5 1021.7S
SAINT JOSEPH      56      CALM  /  2 1022.4R
4 MI NW BRIDGMAN  53 50   40/  6/  6   N/A           0
MICHIGAN CITY     52 50   90/  4/  4   N/A           1

$$
&&


USA.gov is the U.S. government's official web portal to all federal, state and local government web resources and services.